Year,Month,Day,Hour,Minute,Value (Times are PST for temperature in C)
2021,06,25,00,00,18.30
2021,06,25,00,01,18.30
2021,06,25,00,02,18.20
2021,06,25,00,03,18.30
2021,06,25,00,04,18.20
2021,06,25,00,05,18.20
2021,06,25,00,06,18.20
2021,06,25,00,07,18.20
2021,06,25,00,08,18.20
2021,06,25,00,09,18.20
2021,06,25,00,10,18.20
2021,06,25,00,11,18.20
2021,06,25,00,12,18.20
2021,06,25,00,13,18.20
2021,06,25,00,14,18.20
2021,06,25,00,15,18.10
2021,06,25,00,16,18.10
2021,06,25,00,17,18.10
2021,06,25,00,18,18.10
2021,06,25,00,19,18.10
2021,06,25,00,20,18.10
2021,06,25,00,21,18.10
2021,06,25,00,22,18.00
2021,06,25,00,23,18.00
2021,06,25,00,24,18.00
2021,06,25,00,25,18.00
2021,06,25,00,26,17.90
2021,06,25,00,27,17.90
2021,06,25,00,28,17.90
2021,06,25,00,29,17.90
2021,06,25,00,30,17.90
2021,06,25,00,31,17.90
2021,06,25,00,32,17.90
2021,06,25,00,33,17.80
2021,06,25,00,34,17.80
2021,06,25,00,35,17.80
2021,06,25,00,36,17.80
2021,06,25,00,37,17.80
2021,06,25,00,38,17.80
2021,06,25,00,39,17.70
2021,06,25,00,40,17.70
2021,06,25,00,41,17.70
2021,06,25,00,42,17.70
2021,06,25,00,43,17.70
2021,06,25,00,44,17.60
2021,06,25,00,45,17.60
2021,06,25,00,46,17.60
2021,06,25,00,47,17.60
2021,06,25,00,48,17.60
2021,06,25,00,49,17.60
2021,06,25,00,50,17.60
2021,06,25,00,51,17.60
2021,06,25,00,52,17.60
2021,06,25,00,53,17.60
2021,06,25,00,54,17.60
2021,06,25,00,55,17.60
2021,06,25,00,56,17.60
2021,06,25,00,57,17.60
2021,06,25,00,58,17.60
2021,06,25,00,59,17.60
2021,06,25,01,00,17.60
2021,06,25,01,01,17.60
2021,06,25,01,02,17.50
2021,06,25,01,03,17.50
2021,06,25,01,04,17.50
2021,06,25,01,05,17.50
2021,06,25,01,06,17.50
2021,06,25,01,07,17.50
2021,06,25,01,08,17.40
2021,06,25,01,09,17.40
2021,06,25,01,10,17.40
2021,06,25,01,11,17.40
2021,06,25,01,12,17.40
2021,06,25,01,13,17.40
2021,06,25,01,14,17.40
2021,06,25,01,15,17.40
2021,06,25,01,16,17.40
2021,06,25,01,17,17.40
2021,06,25,01,18,17.40
2021,06,25,01,19,17.40
2021,06,25,01,20,17.30
2021,06,25,01,21,17.30
2021,06,25,01,22,17.30
2021,06,25,01,23,17.30
2021,06,25,01,24,17.30
2021,06,25,01,25,17.30
2021,06,25,01,26,17.30
2021,06,25,01,27,17.30
2021,06,25,01,28,17.30
2021,06,25,01,29,17.30
2021,06,25,01,30,17.30
2021,06,25,01,31,17.30
2021,06,25,01,32,17.30
2021,06,25,01,33,17.30
2021,06,25,01,34,17.30
2021,06,25,01,35,17.30
2021,06,25,01,36,17.30
2021,06,25,01,37,17.30
2021,06,25,01,38,17.30
2021,06,25,01,39,17.30
2021,06,25,01,40,17.20
2021,06,25,01,41,17.20
2021,06,25,01,42,17.20
2021,06,25,01,43,17.20
2021,06,25,01,44,17.20
2021,06,25,01,45,17.20
2021,06,25,01,46,17.20
2021,06,25,01,47,17.20
2021,06,25,01,48,17.20
2021,06,25,01,49,17.20
2021,06,25,01,50,17.20
2021,06,25,01,51,17.20
2021,06,25,01,52,17.20
2021,06,25,01,53,17.20
2021,06,25,01,54,17.20
2021,06,25,01,55,17.20
2021,06,25,01,56,17.20
2021,06,25,01,57,17.20
2021,06,25,01,58,17.10
2021,06,25,01,59,17.10
2021,06,25,02,00,17.10
2021,06,25,02,01,17.10
2021,06,25,02,02,17.10
2021,06,25,02,03,17.10
2021,06,25,02,04,17.10
2021,06,25,02,05,17.00
2021,06,25,02,06,17.00
2021,06,25,02,07,17.00
2021,06,25,02,08,17.00
2021,06,25,02,09,17.00
2021,06,25,02,10,16.90
2021,06,25,02,11,16.90
2021,06,25,02,12,16.90
2021,06,25,02,13,16.90
2021,06,25,02,14,16.90
2021,06,25,02,15,16.90
2021,06,25,02,16,16.90
2021,06,25,02,17,16.90
2021,06,25,02,18,16.90
2021,06,25,02,19,16.90
2021,06,25,02,20,16.90
2021,06,25,02,21,16.90
2021,06,25,02,22,16.90
2021,06,25,02,23,16.90
2021,06,25,02,24,16.90
2021,06,25,02,25,16.80
2021,06,25,02,26,16.80
2021,06,25,02,27,16.80
2021,06,25,02,28,16.80
2021,06,25,02,29,16.80
2021,06,25,02,30,16.80
2021,06,25,02,31,16.80
2021,06,25,02,32,16.80
2021,06,25,02,33,16.80
2021,06,25,02,34,16.80
2021,06,25,02,35,16.80
2021,06,25,02,36,16.80
2021,06,25,02,37,16.80
2021,06,25,02,38,16.70
2021,06,25,02,39,16.70
2021,06,25,02,40,16.70
2021,06,25,02,41,16.70
2021,06,25,02,42,16.70
2021,06,25,02,43,16.70
2021,06,25,02,44,16.70
2021,06,25,02,45,16.70
2021,06,25,02,46,16.70
2021,06,25,02,47,16.70
2021,06,25,02,48,16.70
2021,06,25,02,49,16.70
2021,06,25,02,50,16.70
2021,06,25,02,51,16.70
2021,06,25,02,52,16.70
2021,06,25,02,53,16.70
2021,06,25,02,54,16.60
2021,06,25,02,55,16.60
2021,06,25,02,56,16.60
2021,06,25,02,57,16.60
2021,06,25,02,58,16.60
2021,06,25,02,59,16.60
2021,06,25,03,00,16.60
2021,06,25,03,01,16.60
2021,06,25,03,02,16.60
2021,06,25,03,03,16.60
2021,06,25,03,04,16.50
2021,06,25,03,05,16.50
2021,06,25,03,06,16.50
2021,06,25,03,07,16.50
2021,06,25,03,08,16.50
2021,06,25,03,09,16.50
2021,06,25,03,10,16.50
2021,06,25,03,11,16.50
2021,06,25,03,12,16.50
2021,06,25,03,13,16.50
2021,06,25,03,14,16.50
2021,06,25,03,15,16.50
2021,06,25,03,16,16.40
2021,06,25,03,17,16.40
2021,06,25,03,18,16.40
2021,06,25,03,19,16.40
2021,06,25,03,20,16.40
2021,06,25,03,21,16.40
2021,06,25,03,22,16.40
2021,06,25,03,23,16.40
2021,06,25,03,24,16.40
2021,06,25,03,25,16.40
2021,06,25,03,26,16.40
2021,06,25,03,27,16.40
2021,06,25,03,28,16.40
2021,06,25,03,29,16.40
2021,06,25,03,30,16.40
2021,06,25,03,31,16.40
2021,06,25,03,32,16.40
2021,06,25,03,33,16.30
2021,06,25,03,34,16.30
2021,06,25,03,35,16.30
2021,06,25,03,36,16.30
2021,06,25,03,37,16.30
2021,06,25,03,38,16.30
2021,06,25,03,39,16.30
2021,06,25,03,40,16.30
2021,06,25,03,41,16.20
2021,06,25,03,42,16.20
2021,06,25,03,43,16.20
2021,06,25,03,44,16.20
2021,06,25,03,45,16.20
2021,06,25,03,46,16.20
2021,06,25,03,47,16.20
2021,06,25,03,48,16.20
2021,06,25,03,49,16.20
2021,06,25,03,50,16.20
2021,06,25,03,51,16.20
2021,06,25,03,52,16.20
2021,06,25,03,53,16.20
2021,06,25,03,54,16.20
2021,06,25,03,55,16.20
2021,06,25,03,56,16.20
2021,06,25,03,57,16.20
2021,06,25,03,58,16.20
2021,06,25,03,59,16.20
2021,06,25,04,00,16.20
2021,06,25,04,01,16.20
2021,06,25,04,02,16.20
2021,06,25,04,03,16.10
2021,06,25,04,04,16.10
2021,06,25,04,05,16.10
2021,06,25,04,06,16.10
2021,06,25,04,07,16.10
2021,06,25,04,08,16.10
2021,06,25,04,09,16.10
2021,06,25,04,10,16.10
2021,06,25,04,11,16.10
2021,06,25,04,12,16.00
2021,06,25,04,13,16.00
2021,06,25,04,14,16.00
2021,06,25,04,15,16.00
2021,06,25,04,16,16.00
2021,06,25,04,17,16.00
2021,06,25,04,18,16.00
2021,06,25,04,19,16.00
2021,06,25,04,20,16.00
2021,06,25,04,21,16.00
2021,06,25,04,22,16.00
2021,06,25,04,23,16.00
2021,06,25,04,24,16.00
2021,06,25,04,25,16.00
2021,06,25,04,26,15.90
2021,06,25,04,27,15.90
2021,06,25,04,28,15.90
2021,06,25,04,29,15.90
2021,06,25,04,30,15.90
2021,06,25,04,31,15.90
2021,06,25,04,32,15.90
2021,06,25,04,33,15.90
2021,06,25,04,34,15.90
2021,06,25,04,35,15.90
2021,06,25,04,36,15.80
2021,06,25,04,37,15.80
2021,06,25,04,38,15.80
2021,06,25,04,39,15.80
2021,06,25,04,40,15.80
2021,06,25,04,41,15.80
2021,06,25,04,42,15.80
2021,06,25,04,43,15.80
2021,06,25,04,44,15.80
2021,06,25,04,45,15.80
2021,06,25,04,46,15.80
2021,06,25,04,47,15.80
2021,06,25,04,48,15.80
2021,06,25,04,49,15.80
2021,06,25,04,50,15.80
2021,06,25,04,51,15.80
2021,06,25,04,52,15.80
2021,06,25,04,53,15.80
2021,06,25,04,54,15.80
2021,06,25,04,55,15.80
2021,06,25,04,56,15.80
2021,06,25,04,57,15.80
2021,06,25,04,58,15.80
2021,06,25,04,59,15.80
2021,06,25,05,00,15.70
2021,06,25,05,01,15.70
2021,06,25,05,02,15.70
2021,06,25,05,03,15.70
2021,06,25,05,04,15.70
2021,06,25,05,05,15.60
2021,06,25,05,06,15.60
2021,06,25,05,07,15.60
2021,06,25,05,08,15.60
2021,06,25,05,09,15.60
2021,06,25,05,10,15.60
2021,06,25,05,11,15.60
2021,06,25,05,12,15.60
2021,06,25,05,13,15.60
2021,06,25,05,14,15.60
2021,06,25,05,15,15.50
2021,06,25,05,16,15.60
2021,06,25,05,17,15.60
2021,06,25,05,18,15.60
2021,06,25,05,19,15.60
2021,06,25,05,20,15.60
2021,06,25,05,21,15.60
2021,06,25,05,22,15.60
2021,06,25,05,23,15.60
2021,06,25,05,24,15.60
2021,06,25,05,25,15.50
2021,06,25,05,26,15.50
2021,06,25,05,27,15.50
2021,06,25,05,28,15.50
2021,06,25,05,29,15.50
2021,06,25,05,30,15.40
2021,06,25,05,31,15.40
2021,06,25,05,32,15.40
2021,06,25,05,33,15.40
2021,06,25,05,34,15.40
2021,06,25,05,35,15.40
2021,06,25,05,36,15.40
2021,06,25,05,37,15.40
2021,06,25,05,38,15.40
2021,06,25,05,39,15.40
2021,06,25,05,40,15.40
2021,06,25,05,41,15.40
2021,06,25,05,42,15.40
2021,06,25,05,43,15.40
2021,06,25,05,44,15.30
2021,06,25,05,45,15.30
2021,06,25,05,46,15.30
2021,06,25,05,47,15.30
2021,06,25,05,48,15.30
2021,06,25,05,49,15.30
2021,06,25,05,50,15.30
2021,06,25,05,51,15.30
2021,06,25,05,52,15.30
2021,06,25,05,53,15.30
2021,06,25,05,54,15.30
2021,06,25,05,55,15.30
2021,06,25,05,56,15.30
2021,06,25,05,57,15.40
2021,06,25,05,58,15.40
2021,06,25,05,59,15.40
2021,06,25,06,00,15.40
2021,06,25,06,01,15.40
2021,06,25,06,02,15.40
2021,06,25,06,03,15.40
2021,06,25,06,04,15.40
2021,06,25,06,05,15.40
2021,06,25,06,06,15.40
2021,06,25,06,07,15.40
2021,06,25,06,08,15.40
2021,06,25,06,09,15.50
2021,06,25,06,10,15.50
2021,06,25,06,11,15.50
2021,06,25,06,12,15.50
2021,06,25,06,13,15.50
2021,06,25,06,14,15.50
2021,06,25,06,15,15.60
2021,06,25,06,16,15.60
2021,06,25,06,17,15.60
2021,06,25,06,18,15.60
2021,06,25,06,19,15.70
2021,06,25,06,20,15.70
2021,06,25,06,21,15.70
2021,06,25,06,22,15.70
2021,06,25,06,23,15.80
2021,06,25,06,24,15.80
2021,06,25,06,25,15.90
2021,06,25,06,26,16.00
2021,06,25,06,27,16.10
2021,06,25,06,28,16.10
2021,06,25,06,29,16.20
2021,06,25,06,30,16.30
2021,06,25,06,31,16.30
2021,06,25,06,32,16.40
2021,06,25,06,33,16.40
2021,06,25,06,34,16.50
2021,06,25,06,35,16.60
2021,06,25,06,36,16.60
2021,06,25,06,37,16.70
2021,06,25,06,38,16.70
2021,06,25,06,39,16.80
2021,06,25,06,40,16.90
2021,06,25,06,41,17.00
2021,06,25,06,42,17.10
2021,06,25,06,43,17.10
2021,06,25,06,44,17.20
2021,06,25,06,45,17.30
2021,06,25,06,46,17.40
2021,06,25,06,47,17.50
2021,06,25,06,48,17.50
2021,06,25,06,49,17.60
2021,06,25,06,50,17.60
2021,06,25,06,51,17.60
2021,06,25,06,52,17.60
2021,06,25,06,53,17.60
2021,06,25,06,54,17.70
2021,06,25,06,55,17.70
2021,06,25,06,56,17.70
2021,06,25,06,57,17.80
2021,06,25,06,58,17.80
2021,06,25,06,59,17.80
2021,06,25,07,00,17.90
2021,06,25,07,01,17.90
2021,06,25,07,02,18.00
2021,06,25,07,03,18.10
2021,06,25,07,04,18.10
2021,06,25,07,05,18.20
2021,06,25,07,06,18.30
2021,06,25,07,07,18.30
2021,06,25,07,08,18.40
2021,06,25,07,09,18.50
2021,06,25,07,10,18.60
2021,06,25,07,11,18.70
2021,06,25,07,12,18.80
2021,06,25,07,13,18.80
2021,06,25,07,14,18.80
2021,06,25,07,15,18.90
2021,06,25,07,16,18.90
2021,06,25,07,17,18.90
2021,06,25,07,18,18.90
2021,06,25,07,19,18.90
2021,06,25,07,20,18.90
2021,06,25,07,21,19.00
2021,06,25,07,22,19.10
2021,06,25,07,23,19.10
2021,06,25,07,24,19.20
2021,06,25,07,25,19.30
2021,06,25,07,26,19.30
2021,06,25,07,27,19.40
2021,06,25,07,28,19.40
2021,06,25,07,29,19.40
2021,06,25,07,30,19.50
2021,06,25,07,31,19.60
2021,06,25,07,32,19.60
2021,06,25,07,33,19.70
2021,06,25,07,34,19.70
2021,06,25,07,35,19.80
2021,06,25,07,36,19.80
2021,06,25,07,37,19.90
2021,06,25,07,38,20.00
2021,06,25,07,39,20.00
2021,06,25,07,40,20.10
2021,06,25,07,41,20.20
2021,06,25,07,42,20.30
2021,06,25,07,43,20.40
2021,06,25,07,44,20.40
2021,06,25,07,45,20.50
2021,06,25,07,46,20.60
2021,06,25,07,47,20.60
2021,06,25,07,48,20.60
2021,06,25,07,49,20.70
2021,06,25,07,50,20.80
2021,06,25,07,51,20.80
2021,06,25,07,52,20.90
2021,06,25,07,53,21.00
2021,06,25,07,54,21.10
2021,06,25,07,55,21.20
2021,06,25,07,56,21.30
2021,06,25,07,57,21.40
2021,06,25,07,58,21.50
2021,06,25,07,59,21.60
2021,06,25,08,00,21.80
2021,06,25,08,01,22.00
2021,06,25,08,02,22.10
2021,06,25,08,03,22.30
2021,06,25,08,04,22.40
2021,06,25,08,05,22.60
2021,06,25,08,06,22.70
2021,06,25,08,07,22.80
2021,06,25,08,08,22.90
2021,06,25,08,09,23.00
2021,06,25,08,10,23.10
2021,06,25,08,11,23.20
2021,06,25,08,12,23.30
2021,06,25,08,13,23.30
2021,06,25,08,14,23.40
2021,06,25,08,15,23.40
2021,06,25,08,16,23.50
2021,06,25,08,17,23.60
2021,06,25,08,18,23.60
2021,06,25,08,19,23.80
2021,06,25,08,20,23.90
2021,06,25,08,21,23.90
2021,06,25,08,22,24.10
2021,06,25,08,23,24.20
2021,06,25,08,24,24.20
2021,06,25,08,25,24.20
2021,06,25,08,26,24.20
2021,06,25,08,27,24.30
2021,06,25,08,28,24.30
2021,06,25,08,29,24.30
2021,06,25,08,30,24.30
2021,06,25,08,31,24.30
2021,06,25,08,32,24.40
2021,06,25,08,33,24.40
2021,06,25,08,34,24.50
2021,06,25,08,35,24.60
2021,06,25,08,36,24.60
2021,06,25,08,37,24.70
2021,06,25,08,38,24.70
2021,06,25,08,39,24.80
2021,06,25,08,40,24.80
2021,06,25,08,41,24.80
2021,06,25,08,42,24.80
2021,06,25,08,43,24.90
2021,06,25,08,44,24.80
2021,06,25,08,45,24.90
2021,06,25,08,46,24.80
2021,06,25,08,47,24.80
2021,06,25,08,48,24.80
2021,06,25,08,49,24.80
2021,06,25,08,50,24.80
2021,06,25,08,51,24.80
2021,06,25,08,52,24.80
2021,06,25,08,53,24.80
2021,06,25,08,54,24.80
2021,06,25,08,55,24.70
2021,06,25,08,56,24.70
2021,06,25,08,57,24.80
2021,06,25,08,58,24.90
2021,06,25,08,59,24.90
2021,06,25,09,00,25.00
2021,06,25,09,01,25.10
2021,06,25,09,02,25.10
2021,06,25,09,03,25.10
2021,06,25,09,04,25.20
2021,06,25,09,05,25.10
2021,06,25,09,06,25.20
2021,06,25,09,07,25.20
2021,06,25,09,08,25.20
2021,06,25,09,09,25.20
2021,06,25,09,10,25.20
2021,06,25,09,11,25.30
2021,06,25,09,12,25.40
2021,06,25,09,13,25.50
2021,06,25,09,14,25.60
2021,06,25,09,15,25.60
2021,06,25,09,16,25.60
2021,06,25,09,17,25.60
2021,06,25,09,18,25.70
2021,06,25,09,19,25.80
2021,06,25,09,20,25.80
2021,06,25,09,21,25.80
2021,06,25,09,22,25.90
2021,06,25,09,23,26.00
2021,06,25,09,24,26.10
2021,06,25,09,25,26.10
2021,06,25,09,26,26.10
2021,06,25,09,27,26.10
2021,06,25,09,28,26.10
2021,06,25,09,29,26.10
2021,06,25,09,30,26.10
2021,06,25,09,31,26.10
2021,06,25,09,32,26.10
2021,06,25,09,33,26.20
2021,06,25,09,34,26.30
2021,06,25,09,35,26.40
2021,06,25,09,36,26.50
2021,06,25,09,37,26.60
2021,06,25,09,38,26.60
2021,06,25,09,39,26.60
2021,06,25,09,40,26.70
2021,06,25,09,41,26.70
2021,06,25,09,42,26.60
2021,06,25,09,43,26.60
2021,06,25,09,44,26.60
2021,06,25,09,45,26.70
2021,06,25,09,46,26.70
2021,06,25,09,47,26.70
2021,06,25,09,48,26.70
2021,06,25,09,49,26.70
2021,06,25,09,50,26.70
2021,06,25,09,51,26.70
2021,06,25,09,52,26.80
2021,06,25,09,53,26.90
2021,06,25,09,54,27.00
2021,06,25,09,55,27.10
2021,06,25,09,56,27.10
2021,06,25,09,57,27.20
2021,06,25,09,58,27.30
2021,06,25,09,59,27.40
2021,06,25,10,00,27.40
2021,06,25,10,01,27.50
2021,06,25,10,02,27.60
2021,06,25,10,03,27.70
2021,06,25,10,04,27.80
2021,06,25,10,05,27.80
2021,06,25,10,06,27.90
2021,06,25,10,07,27.90
2021,06,25,10,08,28.00
2021,06,25,10,09,28.00
2021,06,25,10,10,28.00
2021,06,25,10,11,28.00
2021,06,25,10,12,27.90
2021,06,25,10,13,27.90
2021,06,25,10,14,27.80
2021,06,25,10,15,27.80
2021,06,25,10,16,27.80
2021,06,25,10,17,27.80
2021,06,25,10,18,27.80
2021,06,25,10,19,27.90
2021,06,25,10,20,28.00
2021,06,25,10,21,28.10
2021,06,25,10,22,28.10
2021,06,25,10,23,28.10
2021,06,25,10,24,28.20
2021,06,25,10,25,28.30
2021,06,25,10,26,28.30
2021,06,25,10,27,28.20
2021,06,25,10,28,28.20
2021,06,25,10,29,28.20
2021,06,25,10,30,28.20
2021,06,25,10,31,28.20
2021,06,25,10,32,28.30
2021,06,25,10,33,28.40
2021,06,25,10,34,28.40
2021,06,25,10,35,28.50
2021,06,25,10,36,28.60
2021,06,25,10,37,28.60
2021,06,25,10,38,28.70
2021,06,25,10,39,28.70
2021,06,25,10,40,28.70
2021,06,25,10,41,28.70
2021,06,25,10,42,28.80
2021,06,25,10,43,28.80
2021,06,25,10,44,28.80
2021,06,25,10,45,28.80
2021,06,25,10,46,28.80
2021,06,25,10,47,28.90
2021,06,25,10,48,28.90
2021,06,25,10,49,28.90
2021,06,25,10,50,29.00
2021,06,25,10,51,29.00
2021,06,25,10,52,29.10
2021,06,25,10,53,29.10
2021,06,25,10,54,29.20
2021,06,25,10,55,29.30
2021,06,25,10,56,29.30
2021,06,25,10,57,29.40
2021,06,25,10,58,29.40
2021,06,25,10,59,29.50
2021,06,25,11,00,29.60
2021,06,25,11,01,29.60
2021,06,25,11,02,29.60
2021,06,25,11,03,29.60
2021,06,25,11,04,29.50
2021,06,25,11,05,29.30
2021,06,25,11,06,29.20
2021,06,25,11,07,29.10
2021,06,25,11,08,29.10
2021,06,25,11,09,29.10
2021,06,25,11,10,29.10
2021,06,25,11,11,29.20
2021,06,25,11,12,29.20
2021,06,25,11,13,29.30
2021,06,25,11,14,29.40
2021,06,25,11,15,29.40
2021,06,25,11,16,29.40
2021,06,25,11,17,29.40
2021,06,25,11,18,29.30
2021,06,25,11,19,29.30
2021,06,25,11,20,29.30
2021,06,25,11,21,29.20
2021,06,25,11,22,29.20
2021,06,25,11,23,29.20
2021,06,25,11,24,29.30
2021,06,25,11,25,29.30
2021,06,25,11,26,29.40
2021,06,25,11,27,29.50
2021,06,25,11,28,29.50
2021,06,25,11,29,29.60
2021,06,25,11,30,29.70
2021,06,25,11,31,29.80
2021,06,25,11,32,29.80
2021,06,25,11,33,29.90
2021,06,25,11,34,30.00
2021,06,25,11,35,30.10
2021,06,25,11,36,30.20
2021,06,25,11,37,30.30
2021,06,25,11,38,30.30
2021,06,25,11,39,30.40
2021,06,25,11,40,30.50
2021,06,25,11,41,30.60
2021,06,25,11,42,30.60
2021,06,25,11,43,30.70
2021,06,25,11,44,30.60
2021,06,25,11,45,30.60
2021,06,25,11,46,30.50
2021,06,25,11,47,30.40
2021,06,25,11,48,30.40
2021,06,25,11,49,30.40
2021,06,25,11,50,30.40
2021,06,25,11,51,30.40
2021,06,25,11,52,30.40
2021,06,25,11,53,30.40
2021,06,25,11,54,30.40
2021,06,25,11,55,30.40
2021,06,25,11,56,30.30
2021,06,25,11,57,30.30
2021,06,25,11,58,30.30
2021,06,25,11,59,30.20
2021,06,25,12,00,30.20
2021,06,25,12,01,30.20
2021,06,25,12,02,30.20
2021,06,25,12,03,30.30
2021,06,25,12,04,30.30
2021,06,25,12,05,30.30
2021,06,25,12,06,30.40
2021,06,25,12,07,30.40
2021,06,25,12,08,30.40
2021,06,25,12,09,30.40
2021,06,25,12,10,30.50
2021,06,25,12,11,30.50
2021,06,25,12,12,30.50
2021,06,25,12,13,30.50
2021,06,25,12,14,30.50
2021,06,25,12,15,30.60
2021,06,25,12,16,30.70
2021,06,25,12,17,30.70
2021,06,25,12,18,30.80
2021,06,25,12,19,30.80
2021,06,25,12,20,30.80
2021,06,25,12,21,30.80
2021,06,25,12,22,30.90
2021,06,25,12,23,30.90
2021,06,25,12,24,31.00
2021,06,25,12,25,31.00
2021,06,25,12,26,31.10
2021,06,25,12,27,31.10
2021,06,25,12,28,31.10
2021,06,25,12,29,31.10
2021,06,25,12,30,31.00
2021,06,25,12,31,31.00
2021,06,25,12,32,31.00
2021,06,25,12,33,31.00
2021,06,25,12,34,31.00
2021,06,25,12,35,30.90
2021,06,25,12,36,30.80
2021,06,25,12,37,30.80
2021,06,25,12,38,30.70
2021,06,25,12,39,30.70
2021,06,25,12,40,30.80
2021,06,25,12,41,30.80
2021,06,25,12,42,30.90
2021,06,25,12,43,30.90
2021,06,25,12,44,31.00
2021,06,25,12,45,31.00
2021,06,25,12,46,31.00
2021,06,25,12,47,31.10
2021,06,25,12,48,31.10
2021,06,25,12,49,31.00
2021,06,25,12,50,31.00
2021,06,25,12,51,30.90
2021,06,25,12,52,30.90
2021,06,25,12,53,30.90
2021,06,25,12,54,30.90
2021,06,25,12,55,30.90
2021,06,25,12,56,30.90
2021,06,25,12,57,30.90
2021,06,25,12,58,30.90
2021,06,25,12,59,30.90
2021,06,25,13,00,30.90
2021,06,25,13,01,31.00
2021,06,25,13,02,31.00
2021,06,25,13,03,31.10
2021,06,25,13,04,31.10
2021,06,25,13,05,31.10
2021,06,25,13,06,31.10
2021,06,25,13,07,31.10
2021,06,25,13,08,31.20
2021,06,25,13,09,31.20
2021,06,25,13,10,31.30
2021,06,25,13,11,31.30
2021,06,25,13,12,31.40
2021,06,25,13,13,31.50
2021,06,25,13,14,31.50
2021,06,25,13,15,31.50
2021,06,25,13,16,31.40
2021,06,25,13,17,31.40
2021,06,25,13,18,31.40
2021,06,25,13,19,31.50
2021,06,25,13,20,31.50
2021,06,25,13,21,31.60
2021,06,25,13,22,31.60
2021,06,25,13,23,31.70
2021,06,25,13,24,31.70
2021,06,25,13,25,31.80
2021,06,25,13,26,31.80
2021,06,25,13,27,31.80
2021,06,25,13,28,31.80
2021,06,25,13,29,31.90
2021,06,25,13,30,31.90
2021,06,25,13,31,32.00
2021,06,25,13,32,32.00
2021,06,25,13,33,32.10
2021,06,25,13,34,32.20
2021,06,25,13,35,32.20
2021,06,25,13,36,32.20
2021,06,25,13,37,32.20
2021,06,25,13,38,32.10
2021,06,25,13,39,32.00
2021,06,25,13,40,31.90
2021,06,25,13,41,31.70
2021,06,25,13,42,31.70
2021,06,25,13,43,31.60
2021,06,25,13,44,31.70
2021,06,25,13,45,31.70
2021,06,25,13,46,31.80
2021,06,25,13,47,31.80
2021,06,25,13,48,31.90
2021,06,25,13,49,31.90
2021,06,25,13,50,32.00
2021,06,25,13,51,32.10
2021,06,25,13,52,32.10
2021,06,25,13,53,32.20
2021,06,25,13,54,32.30
2021,06,25,13,55,32.30
2021,06,25,13,56,32.40
2021,06,25,13,57,32.50
2021,06,25,13,58,32.60
2021,06,25,13,59,32.80
2021,06,25,14,00,32.90
2021,06,25,14,01,33.00
2021,06,25,14,02,33.10
2021,06,25,14,03,33.10
2021,06,25,14,04,33.10
2021,06,25,14,05,33.10
2021,06,25,14,06,32.90
2021,06,25,14,07,32.80
2021,06,25,14,08,32.80
2021,06,25,14,09,32.90
2021,06,25,14,10,32.90
2021,06,25,14,11,33.00
2021,06,25,14,12,33.00
2021,06,25,14,13,33.00
2021,06,25,14,14,33.00
2021,06,25,14,15,33.00
2021,06,25,14,16,33.10
2021,06,25,14,17,33.10
2021,06,25,14,18,33.20
2021,06,25,14,19,33.20
2021,06,25,14,20,33.30
2021,06,25,14,21,33.40
2021,06,25,14,22,33.40
2021,06,25,14,23,33.40
2021,06,25,14,24,33.50
2021,06,25,14,25,33.50
2021,06,25,14,26,33.50
2021,06,25,14,27,33.60
2021,06,25,14,28,33.60
2021,06,25,14,29,33.60
2021,06,25,14,30,33.70
2021,06,25,14,31,33.70
2021,06,25,14,32,33.80
2021,06,25,14,33,33.80
2021,06,25,14,34,33.90
2021,06,25,14,35,33.90
2021,06,25,14,36,33.80
2021,06,25,14,37,33.70
2021,06,25,14,38,33.60
2021,06,25,14,39,33.70
2021,06,25,14,40,33.70
2021,06,25,14,41,33.70
2021,06,25,14,42,33.70
2021,06,25,14,43,33.60
2021,06,25,14,44,33.60
2021,06,25,14,45,33.60
2021,06,25,14,46,33.60
2021,06,25,14,47,33.60
2021,06,25,14,48,33.60
2021,06,25,14,49,33.60
2021,06,25,14,50,33.70
2021,06,25,14,51,33.70
2021,06,25,14,52,33.70
2021,06,25,14,53,33.70
2021,06,25,14,54,33.80
2021,06,25,14,55,33.80
2021,06,25,14,56,33.90
2021,06,25,14,57,33.90
2021,06,25,14,58,34.00
2021,06,25,14,59,34.00
2021,06,25,15,00,34.10
2021,06,25,15,01,34.00
2021,06,25,15,02,33.90
2021,06,25,15,03,33.90
2021,06,25,15,04,33.90
2021,06,25,15,05,34.00
2021,06,25,15,06,34.00
2021,06,25,15,07,34.00
2021,06,25,15,08,34.10
2021,06,25,15,09,34.10
2021,06,25,15,10,34.20
2021,06,25,15,11,34.20
2021,06,25,15,12,34.20
2021,06,25,15,13,34.20
2021,06,25,15,14,34.10
2021,06,25,15,15,34.10
2021,06,25,15,16,34.00
2021,06,25,15,17,34.00
2021,06,25,15,18,34.00
2021,06,25,15,19,33.90
2021,06,25,15,20,34.00
2021,06,25,15,21,34.00
2021,06,25,15,22,34.00
2021,06,25,15,23,34.10
2021,06,25,15,24,34.10
2021,06,25,15,25,34.20
2021,06,25,15,26,34.30
2021,06,25,15,27,34.30
2021,06,25,15,28,34.30
2021,06,25,15,29,34.30
2021,06,25,15,30,34.40
2021,06,25,15,31,34.40
2021,06,25,15,32,34.50
2021,06,25,15,33,34.50
2021,06,25,15,34,34.50
2021,06,25,15,35,34.40
2021,06,25,15,36,34.40
2021,06,25,15,37,34.40
2021,06,25,15,38,34.40
2021,06,25,15,39,34.30
2021,06,25,15,40,34.30
2021,06,25,15,41,34.20
2021,06,25,15,42,34.20
2021,06,25,15,43,34.20
2021,06,25,15,44,34.20
2021,06,25,15,45,34.20
2021,06,25,15,46,34.30
2021,06,25,15,47,34.20
2021,06,25,15,48,34.20
2021,06,25,15,49,34.30
2021,06,25,15,50,34.30
2021,06,25,15,51,34.30
2021,06,25,15,52,34.30
2021,06,25,15,53,34.30
2021,06,25,15,54,34.30
2021,06,25,15,55,34.40
2021,06,25,15,56,34.50
2021,06,25,15,57,34.50
2021,06,25,15,58,34.60
2021,06,25,15,59,34.60
2021,06,25,16,00,34.70
2021,06,25,16,01,34.80
2021,06,25,16,02,34.80
2021,06,25,16,03,34.80
2021,06,25,16,04,34.80
2021,06,25,16,05,34.80
2021,06,25,16,06,34.70
2021,06,25,16,07,34.60
2021,06,25,16,08,34.70
2021,06,25,16,09,34.70
2021,06,25,16,10,34.80
2021,06,25,16,11,34.80
2021,06,25,16,12,34.80
2021,06,25,16,13,34.80
2021,06,25,16,14,34.70
2021,06,25,16,15,34.60
2021,06,25,16,16,34.60
2021,06,25,16,17,34.60
2021,06,25,16,18,34.60
2021,06,25,16,19,34.40
2021,06,25,16,20,34.20
2021,06,25,16,21,34.00
2021,06,25,16,22,33.90
2021,06,25,16,23,33.80
2021,06,25,16,24,33.80
2021,06,25,16,25,33.70
2021,06,25,16,26,33.70
2021,06,25,16,27,33.70
2021,06,25,16,28,33.60
2021,06,25,16,29,33.50
2021,06,25,16,30,33.30
2021,06,25,16,31,33.20
2021,06,25,16,32,33.20
2021,06,25,16,33,33.20
2021,06,25,16,34,33.20
2021,06,25,16,35,33.20
2021,06,25,16,36,33.20
2021,06,25,16,37,33.30
2021,06,25,16,38,33.30
2021,06,25,16,39,33.20
2021,06,25,16,40,33.20
2021,06,25,16,41,33.10
2021,06,25,16,42,33.00
2021,06,25,16,43,33.00
2021,06,25,16,44,33.00
2021,06,25,16,45,33.00
2021,06,25,16,46,33.00
2021,06,25,16,47,33.10
2021,06,25,16,48,33.10
2021,06,25,16,49,33.10
2021,06,25,16,50,33.20
2021,06,25,16,51,33.20
2021,06,25,16,52,33.30
2021,06,25,16,53,33.30
2021,06,25,16,54,33.30
2021,06,25,16,55,33.40
2021,06,25,16,56,33.60
2021,06,25,16,57,33.60
2021,06,25,16,58,33.70
2021,06,25,16,59,33.80
2021,06,25,17,00,33.80
2021,06,25,17,01,33.80
2021,06,25,17,02,33.90
2021,06,25,17,03,34.00
2021,06,25,17,04,34.10
2021,06,25,17,05,34.20
2021,06,25,17,06,34.20
2021,06,25,17,07,34.30
2021,06,25,17,08,34.40
2021,06,25,17,09,34.60
2021,06,25,17,10,34.60
2021,06,25,17,11,34.70
2021,06,25,17,12,34.80
2021,06,25,17,13,34.90
2021,06,25,17,14,34.90
2021,06,25,17,15,35.00
2021,06,25,17,16,35.10
2021,06,25,17,17,35.10
2021,06,25,17,18,35.10
2021,06,25,17,19,35.10